Hourly Weather Holovkivka

Today, 12 April, Monday

Time Temperature Precipitation Wind Pressure Humidity
00:00 +7°C° 0 mm 3 mps 751 mmHg 61%
01:00 +7°C° 0 mm 3 mps 750 mmHg 63%
02:00 +5°C° 0 mm 3 mps 750 mmHg 66%
03:00 +5°C° 0 mm 3 mps 749 mmHg 67%
04:00 +5°C° 0 mm 3 mps 749 mmHg 68%
05:00 +5°C° 0 mm 3 mps 749 mmHg 69%
06:00 +5°C° 0.3 mm 3 mps 749 mmHg 73%
07:00 +5°C° 0.3 mm 3 mps 748 mmHg 78%
08:00 +5°C° 0.3 mm 3 mps 748 mmHg 83%
09:00 +7°C° 0.1 mm 3 mps 748 mmHg 80%
10:00 +8°C° 0.1 mm 3 mps 748 mmHg 77%
11:00 +8°C° 0.1 mm 3 mps 748 mmHg 74%
12:00 +9°C° 0 mm 2 mps 748 mmHg 74%
13:00 +9°C° 0 mm 2 mps 748 mmHg 74%
14:00 +9°C° 0 mm 2 mps 747 mmHg 74%
15:00 +9°C° 0 mm 2 mps 747 mmHg 75%
16:00 +10°C° 0 mm 1 mps 747 mmHg 76%
17:00 +11°C° 0 mm 1 mps 747 mmHg 77%
18:00 +10°C° 0 mm 1 mps 747 mmHg 79%
19:00 +10°C° 0 mm 1 mps 747 mmHg 80%
20:00 +10°C° 0 mm 1 mps 748 mmHg 82%
21:00 +10°C° 0 mm 1 mps 747 mmHg 83%
22:00 +10°C° 0 mm 1 mps 747 mmHg 84%
23:00 +10°C° 0 mm 1 mps 747 mmHg 85%

Tomorrow, 13 April, Tuesday

Time Temperature Precipitation Wind Pressure Humidity
00:00 +10°C° 0 mm 1 mps 747 mmHg 86%
01:00 +10°C° 0 mm 1 mps 747 mmHg 87%
02:00 +8°C° 0 mm 0 mps 747 mmHg 88%
03:00 +9°C° 0 mm 1 mps 747 mmHg 89%
04:00 +9°C° 0 mm 1 mps 747 mmHg 90%
05:00 +9°C° 0 mm 1 mps 747 mmHg 91%
06:00 +10°C° 0 mm 1 mps 747 mmHg 90%
07:00 +10°C° 0 mm 1 mps 747 mmHg 90%
08:00 +10°C° 0 mm 1 mps 747 mmHg 89%
09:00 +9°C° 0 mm 2 mps 747 mmHg 86%
10:00 +10°C° 0 mm 2 mps 747 mmHg 83%
11:00 +11°C° 0 mm 3 mps 747 mmHg 80%
12:00 +11°C° 0 mm 3 mps 747 mmHg 77%
13:00 +12°C° 0 mm 3 mps 747 mmHg 74%
14:00 +12°C° 0 mm 3 mps 747 mmHg 70%
15:00 +12°C° 0 mm 3 mps 746 mmHg 72%
16:00 +13°C° 0 mm 2 mps 746 mmHg 74%
17:00 +12°C° 0 mm 2 mps 746 mmHg 76%
18:00 +12°C° 0 mm 2 mps 746 mmHg 79%
19:00 +12°C° 0 mm 2 mps 746 mmHg 81%
20:00 +10°C° 0 mm 2 mps 746 mmHg 83%
21:00 +10°C° 0 mm 2 mps 746 mmHg 84%
22:00 +10°C° 0 mm 2 mps 746 mmHg 85%
23:00 +9°C° 0 mm 2 mps 746 mmHg 86%

Day after tomorrow, 14 April, Wednesday

Time Temperature Precipitation Wind Pressure Humidity
00:00 +9°C° 0 mm 2 mps 745 mmHg 87%
01:00 +9°C° 0 mm 2 mps 745 mmHg 88%
02:00 +8°C° 0 mm 2 mps 745 mmHg 90%
03:00 +8°C° 0 mm 2 mps 745 mmHg 90%
04:00 +7°C° 0 mm 2 mps 745 mmHg 91%
05:00 +7°C° 0 mm 2 mps 745 mmHg 91%
06:00 +8°C° 0 mm 2 mps 745 mmHg 87%
07:00 +9°C° 0 mm 3 mps 745 mmHg 82%
08:00 +10°C° 0 mm 3 mps 745 mmHg 77%
09:00 +11°C° 0 mm 3 mps 745 mmHg 71%
10:00 +12°C° 0 mm 3 mps 745 mmHg 65%
11:00 +13°C° 0 mm 3 mps 745 mmHg 59%
12:00 +14°C° 0.1 mm 3 mps 744 mmHg 56%
13:00 +14°C° 0.1 mm 3 mps 744 mmHg 54%
14:00 +16°C° 0.1 mm 3 mps 744 mmHg 51%
15:00 +14°C° 0.1 mm 3 mps 743 mmHg 53%
16:00 +15°C° 0.1 mm 2 mps 743 mmHg 55%
17:00 +15°C° 0.1 mm 2 mps 743 mmHg 57%
18:00 +14°C° 0.2 mm 2 mps 743 mmHg 61%
19:00 +13°C° 0.2 mm 1 mps 743 mmHg 65%
20:00 +12°C° 0.2 mm 1 mps 743 mmHg 70%
21:00 +12°C° 0 mm 1 mps 743 mmHg 71%
22:00 +12°C° 0 mm 2 mps 743 mmHg 72%
23:00 +10°C° 0 mm 2 mps 742 mmHg 74%

15 April, Thursday

Time Temperature Precipitation Wind Pressure Humidity
00:00 +10°C° 0 mm 2 mps 742 mmHg 75%
01:00 +9°C° 0 mm 2 mps 742 mmHg 76%
02:00 +9°C° 0 mm 2 mps 742 mmHg 78%
03:00 +9°C° 0 mm 3 mps 742 mmHg 79%
04:00 +8°C° 0 mm 3 mps 742 mmHg 80%
05:00 +8°C° 0 mm 3 mps 742 mmHg 81%
06:00 +8°C° 0 mm 3 mps 742 mmHg 78%
07:00 +9°C° 0 mm 3 mps 742 mmHg 76%
08:00 +9°C° 0 mm 3 mps 742 mmHg 73%
09:00 +9°C° 0 mm 3 mps 742 mmHg 75%
10:00 +9°C° 0 mm 3 mps 742 mmHg 77%
11:00 +9°C° 0 mm 3 mps 742 mmHg 78%
12:00 +10°C° 0.1 mm 3 mps 742 mmHg 75%
13:00 +12°C° 0.1 mm 2 mps 742 mmHg 72%
14:00 +13°C° 0.1 mm 2 mps 741 mmHg 68%
15:00 +13°C° 0.3 mm 2 mps 741 mmHg 74%
16:00 +12°C° 0.3 mm 2 mps 741 mmHg 79%
17:00 +10°C° 0.3 mm 2 mps 741 mmHg 84%
18:00 +11°C° 0.1 mm 1 mps 741 mmHg 87%
19:00 +11°C° 0.1 mm 1 mps 741 mmHg 89%
20:00 +10°C° 0.1 mm 1 mps 741 mmHg 91%
21:00 +10°C° 0.3 mm 1 mps 741 mmHg 92%
22:00 +10°C° 0.3 mm 1 mps 741 mmHg 93%
23:00 +10°C° 0.3 mm 1 mps 740 mmHg 93%

16 April, Friday

Time Temperature Precipitation Wind Pressure Humidity
00:00 +9°C° 0.7 mm 1 mps 740 mmHg 93%
01:00 +9°C° 0.7 mm 1 mps 740 mmHg 94%
02:00 +8°C° 0.7 mm 2 mps 740 mmHg 94%
03:00 +8°C° 0.6 mm 2 mps 739 mmHg 94%
04:00 +8°C° 0.6 mm 2 mps 739 mmHg 94%
05:00 +8°C° 0.6 mm 2 mps 739 mmHg 94%
06:00 +8°C° 0.4 mm 3 mps 739 mmHg 93%
07:00 +6°C° 0.4 mm 4 mps 739 mmHg 93%
08:00 +6°C° 0.4 mm 4 mps 739 mmHg 92%
09:00 +6°C° 0.2 mm 4 mps 740 mmHg 91%
10:00 +6°C° 0.2 mm 4 mps 740 mmHg 90%
11:00 +6°C° 0.2 mm 5 mps 740 mmHg 90%
12:00 +6°C° 0.4 mm 5 mps 740 mmHg 90%
13:00 +6°C° 0.4 mm 5 mps 740 mmHg 90%
14:00 +5°C° 0.4 mm 5 mps 740 mmHg 90%
15:00 +5°C° 0.1 mm 5 mps 741 mmHg 89%
16:00 +5°C° 0.1 mm 4 mps 741 mmHg 88%
17:00 +5°C° 0.1 mm 4 mps 741 mmHg 88%
18:00 +4°C° 0 mm 4 mps 741 mmHg 89%
19:00 +4°C° 0 mm 4 mps 741 mmHg 91%
20:00 +3°C° 0 mm 4 mps 742 mmHg 93%
21:00 +3°C° 0 mm 4 mps 742 mmHg 93%
22:00 +2°C° 0 mm 3 mps 742 mmHg 94%
23:00 +2°C° 0 mm 3 mps 742 mmHg 94%

17 April, Saturday

Time Temperature Precipitation Wind Pressure Humidity
00:00 +2°C° 0 mm 3 mps 742 mmHg 94%
01:00 +3°C° 0 mm 2 mps 743 mmHg 94%
02:00 +3°C° 0 mm 2 mps 743 mmHg 93%
03:00 +3°C° 0 mm 2 mps 743 mmHg 93%
04:00 +3°C° 0 mm 2 mps 744 mmHg 93%
05:00 +3°C° 0 mm 2 mps 744 mmHg 92%
06:00 +3°C° 0 mm 2 mps 744 mmHg 92%
07:00 +4°C° 0 mm 2 mps 745 mmHg 91%
08:00 +4°C° 0 mm 2 mps 745 mmHg 90%
09:00 +5°C° 0 mm 2 mps 746 mmHg 86%
10:00 +5°C° 0 mm 2 mps 746 mmHg 83%
11:00 +5°C° 0 mm 3 mps 747 mmHg 79%
12:00 +6°C° 0 mm 2 mps 747 mmHg 78%
13:00 +7°C° 0 mm 2 mps 747 mmHg 76%
14:00 +7°C° 0 mm 2 mps 747 mmHg 75%
15:00 +7°C° 0 mm 2 mps 748 mmHg 74%
16:00 +7°C° 0 mm 2 mps 748 mmHg 73%
17:00 +7°C° 0 mm 2 mps 748 mmHg 72%
18:00 +7°C° 0 mm 2 mps 748 mmHg 76%
19:00 +6°C° 0 mm 2 mps 749 mmHg 79%
20:00 +5°C° 0 mm 2 mps 749 mmHg 83%
21:00 +6°C° 0 mm 1 mps 749 mmHg 84%
22:00 +5°C° 0 mm 1 mps 749 mmHg 85%
23:00 +4°C° 0 mm 0 mps 749 mmHg 86%
Show more